Location: Unspecified
(0.0000°N, 0.0000°E)
Time: 06:21:38
(UTC+00:00)

Amateur Radio Satellites - All Passes

Search period start: 12 December 2017 05:51
Search period end: 13 December 2017 05:51
Location: Unspecified, 0.0000°N, 0.0000°E

Satellite Date Start Highest point End Downlink Frequencies (MHz)
Time Altitude Azimuth
SRMSAT 12 Dec 05:59:07 06:04:02 26° 342° (NNW) 06:08:59 437.500
KKS-1 12 Dec 06:09:57 06:10:32 10° 257° (WSW) 06:11:08 437.445
CUTE-I 12 Dec 06:12:37 06:17:51 66° 283° (WNW) 06:23:07 437.470
FALCONSAT 3 12 Dec 06:15:50 06:17:37 13° 36° (NE) 06:19:25 435.103
LilacSat-2 12 Dec 06:19:20 06:22:23 22° 281° (WNW) 06:25:26 437.200
SEEDS 12 Dec 06:25:53 06:29:27 27° 102° (ESE) 06:32:59 437.485
XW-2D 12 Dec 06:39:34 06:41:08 12° 281° (WNW) 06:42:41 145.860 - 145.880
CUTE 1.7 + AOD 2 12 Dec 06:41:47 06:46:03 86° 282° (WNW) 06:50:19 437.475
XW-2A 12 Dec 06:48:17 06:50:28 16° 102° (ESE) 06:52:38 145.665 - 145.685
AAUSAT CUBESAT 2 12 Dec 06:54:52 06:58:08 23° 101° (ESE) 07:01:24 437.432
CUBEBUG 2 12 Dec 06:56:19 07:00:42 78° 100° (E) 07:05:16 437.445
KAITUO 1B 12 Dec 06:57:01 06:57:43 10° 282° (WNW) 06:58:24 145.475/437.950
NUDT-PHONESAT 12 Dec 06:59:13 06:59:42 10° 281° (WNW) 07:00:12 437.300
PCSat 12 Dec 06:59:47 07:03:23 18° 250° (WSW) 07:07:00 145.827
UWE-3 12 Dec 07:02:57 07:07:11 44° 102° (ESE) 07:11:33 435.000/436.395/437.385
FO-29 12 Dec 07:03:29 07:08:35 21° 75° (ENE) 07:13:58 435.910
O/OREOS (USA 219) 12 Dec 07:07:12 07:10:38 21° 105° (ESE) 07:14:04 437.305
HO-68 12 Dec 07:13:24 07:20:17 53° 284° (WNW) 07:27:12 435.675
BEESAT 3 12 Dec 07:20:18 07:24:05 77° 250° (WSW) 07:27:52 437.485
STRAND 1 12 Dec 07:27:50 07:32:51 54° 257° (WSW) 07:37:51 437.568
ZACube-1 12 Dec 07:35:06 07:39:29 55° 102° (ESE) 07:43:57 437.345
SRMSAT 12 Dec 07:51:16 07:53:56 13° 350° (N) 07:56:35 437.500
BEESAT 2 12 Dec 07:52:36 07:56:23 49° 68° (ENE) 08:00:07 435.950
FALCONSAT 3 12 Dec 07:53:03 07:56:37 53° 218° (SW) 08:00:13 435.103
Oscar 11 12 Dec 08:00:29 08:04:46 61° 101° (E) 08:09:04 .
SEEDS 12 Dec 08:03:30 08:04:50 11° 282° (WNW) 08:06:10 437.485
AO-73 12 Dec 08:11:04 08:15:23 52° 282° (WNW) 08:19:50 145.935
XW-2A 12 Dec 08:21:50 08:22:52 11° 281° (W) 08:23:54 145.665 - 145.685
DELFI C3 12 Dec 08:26:55 08:29:13 15° 102° (ESE) 08:31:31 145.870
AAUSAT CUBESAT 2 12 Dec 08:31:28 08:33:18 13° 282° (WNW) 08:35:08 437.432
FO-29 12 Dec 08:46:41 08:53:07 44° 258° (WSW) 09:00:11 435.910
O/OREOS (USA 219) 12 Dec 08:46:45 08:49:46 17° 284° (WNW) 08:52:47 437.305
TIGRISAT 12 Dec 08:47:42 08:51:02 21° 79° (E) 08:54:18 435.000
UNISAT 6 12 Dec 08:49:46 08:53:27 25° 79° (E) 08:57:02 437.425
JUGNU 12 Dec 09:01:20 09:05:02 17° 14° (NNE) 09:08:45 437.505
nSIGHT-1 12 Dec 09:12:09 09:15:01 30° 125° (SE) 09:17:53 .
Max Valier Satellite 12 Dec 09:14:06 09:17:43 52° 100° (E) 09:21:23 145.860
AO-85 12 Dec 09:17:40 09:22:51 61° 248° (WSW) 09:28:09 145.980
ISS 12 Dec 09:42:32 09:45:47 64° 125° (SE) 09:49:01 437.550
EO-88 12 Dec 09:49:21 09:52:58 63° 281° (WNW) 09:56:35 145.990 - 145.960
DELFI C3 12 Dec 10:01:09 10:03:41 17° 281° (WNW) 10:06:13 145.870
AIST 2D 12 Dec 10:02:38 10:03:24 11° 79° (E) 10:04:10 435.315
PRISM 12 Dec 10:24:22 10:28:30 65° 258° (WSW) 10:32:36 437.425
TIGRISAT 12 Dec 10:24:34 10:27:26 17° 257° (WSW) 10:30:15 435.000
UNISAT 6 12 Dec 10:27:34 10:29:51 14° 257° (WSW) 10:32:06 437.425
LO-87 12 Dec 10:30:00 10:33:10 31° 101° (ESE) 10:36:21 145.935 - 145.965
JUGNU 12 Dec 10:49:01 10:54:31 37° 20° (NNE) 11:00:02 437.505
QB50P2 12 Dec 10:52:51 10:56:00 20° 78° (ENE) 10:59:08 145.880/145.840
DUCHIFAT 1 12 Dec 11:03:17 11:06:04 17° 78° (ENE) 11:08:49 145.980
ESTCUBE 1 12 Dec 11:15:28 11:19:59 77° 282° (WNW) 11:24:30 437.505/2401.250
NANOSAT C BR1 12 Dec 11:26:39 11:30:43 47° 78° (ENE) 11:34:44 145.865
VELOX 1 12 Dec 11:28:44 11:30:14 12° 102° (ESE) 11:31:45 145.980
SRMSAT 12 Dec 11:31:31 11:34:34 14° 11° (N) 11:37:36 437.500
AIST 2D 12 Dec 11:33:57 11:36:17 17° 259° (W) 11:38:37 435.315
EO-79 12 Dec 11:39:45 11:43:59 88° 246° (WSW) 11:48:11 145.935-145.965
BUGSAT 1 12 Dec 11:55:59 11:58:22 15° 79° (ENE) 12:00:45 437.445
POLYITAN 1 12 Dec 12:02:10 12:06:08 40° 258° (WSW) 12:10:04 437.675
QB50P2 12 Dec 12:29:02 12:31:30 15° 258° (WSW) 12:33:57 145.880/145.840
SPROUT 12 Dec 12:29:33 12:33:31 41° 282° (WNW) 12:37:33 437.525
RS-15 12 Dec 12:31:02 12:41:26 35° 111° (ESE) 12:52:01 29.354- 29.394
DX 1 12 Dec 12:33:19 12:35:16 13° 103° (ESE) 12:37:13 434.975-435.025
JUGNU 12 Dec 12:37:36 12:43:38 81° 202° (SSW) 12:49:39 437.505
DUCHIFAT 1 12 Dec 12:38:37 12:41:27 18° 258° (WSW) 12:44:16 145.980
50 SAT 12 Dec 12:39:32 12:40:54 12° 102° (ESE) 12:42:15 437.505
VELOX 1 12 Dec 13:02:38 13:06:24 29° 282° (WNW) 13:10:10 145.980
AO-91 12 Dec 13:14:33 13:19:59 83° 258° (WSW) 13:25:11 145.960
SRMSAT 12 Dec 13:19:13 13:24:21 30° 18° (NNE) 13:29:28 437.500
Oscar 19 12 Dec 13:20:38 13:25:45 77° 258° (WSW) 13:30:50 437.125/150
BUGSAT 1 12 Dec 13:30:26 13:33:27 20° 258° (WSW) 13:36:27 437.445
Gurwin Techsat 1B 12 Dec 13:39:23 13:44:41 70° 257° (WSW) 13:49:58 435.225
AO-7 12 Dec 13:55:02 14:00:40 20° 73° (ENE) 14:06:14 .
UKube-1 12 Dec 13:57:20 14:01:34 67° 283° (WNW) 14:05:50 .
DX 1 12 Dec 14:07:36 14:11:10 25° 282° (WNW) 14:14:44 434.975-435.025
50 SAT 12 Dec 14:11:34 14:12:34 11° 281° (WNW) 14:13:35 437.505
YUBILEINY 12 Dec 14:11:39 14:19:33 38° 87° (E) 14:27:24 435.215
JUGNU 12 Dec 14:27:35 14:32:47 30° 199° (SSW) 14:37:59 437.505
ITAMSAT 1 12 Dec 14:28:29 14:31:41 16° 77° (ENE) 14:34:52 435.822/435.867
BEESAT 12 Dec 14:29:20 14:33:15 26° 103° (ESE) 14:37:11 436.000
MOZHAYETS 4 12 Dec 14:32:45 14:37:10 46° 102° (ESE) 14:41:38
SO-50 12 Dec 14:37:53 14:42:21 72° 292° (WNW) 14:46:45 436.795
RS-15 12 Dec 14:42:16 14:53:27 45° 291° (WNW) 15:04:56 29.354- 29.394
M-CUBED/EXP-1 PRIME 12 Dec 14:52:47 14:56:28 56° 74° (ENE) 15:00:26 437.505
ITUPSAT 1 12 Dec 14:54:56 14:59:36 56° 102° (ESE) 15:04:18 437.325
SRMSAT 12 Dec 15:07:42 15:13:39 79° 21° (NNE) 15:19:36 437.500
AO-7 12 Dec 15:45:03 15:53:01 53° 254° (WSW) 16:01:00 .
CUBESAT XI-V 12 Dec 15:48:26 15:53:07 78° 101° (ESE) 15:57:47 437.345
ITAMSAT 1 12 Dec 16:06:17 16:10:51 31° 257° (WSW) 16:15:25 435.822/435.867
NO-84 12 Dec 16:06:29 16:09:34 19° 58° (ENE) 16:12:40 435.350 FM
BEESAT 12 Dec 16:07:51 16:10:44 16° 283° (WNW) 16:13:39 436.000
YUBILEINY 12 Dec 16:08:58 16:15:57 27° 267° (W) 16:22:56 435.215
JUGNU 12 Dec 16:19:17 16:22:24 14° 192° (SSW) 16:25:30 437.505
DOVE 4 12 Dec 16:40:41 16:45:54 83° 259° (WSW) 16:51:13 437.250
KKS-1 12 Dec 16:42:17 16:46:32 50° 102° (ESE) 16:50:49 437.445
SRMSAT 12 Dec 16:57:26 17:02:54 38° 200° (SSW) 17:08:21 437.500
XW-2D 12 Dec 16:58:25 17:00:38 15° 79° (ENE) 17:02:52 145.860 - 145.880
CUTE-I 12 Dec 17:13:10 17:17:25 24° 77° (ENE) 17:21:37 437.470
XW-2B 12 Dec 17:13:18 17:16:24 25° 79° (ENE) 17:19:29 145.730 - 145.750
KAITUO 1B 12 Dec 17:13:35 17:15:55 16° 79° (ENE) 17:18:14 145.475/437.950
NUDT-PHONESAT 12 Dec 17:14:51 17:17:02 15° 79° (ENE) 17:19:13 437.300
HO-68 12 Dec 17:21:31 17:24:34 13° 75° (ENE) 17:27:35 435.675
XW-2F 12 Dec 17:27:23 17:30:53 39° 79° (E) 17:34:22 145.980 - 146.000
STARS 12 Dec 17:32:50 17:37:11 80° 102° (ESE) 17:41:34 437.465
XW-2C 12 Dec 17:39:50 17:43:35 74° 78° (ENE) 17:47:18 145.795 - 145.815
NO-84 12 Dec 17:43:22 17:46:41 22° 238° (WSW) 17:50:00 435.350 FM
PCSat 12 Dec 17:51:01 17:56:25 88° 290° (WNW) 18:01:49 145.827
FALCONSAT 3 12 Dec 17:58:55 18:00:35 13° 144° (SE) 18:02:15 435.103
LilacSat-2 12 Dec 18:13:22 18:16:34 27° 259° (W) 18:19:46 437.200
STRAND 1 12 Dec 18:22:29 18:26:24 22° 103° (ESE) 18:30:19 437.568
SEEDS 12 Dec 18:30:44 18:34:26 31° 79° (ENE) 18:38:09 437.485
XW-2D 12 Dec 18:32:21 18:34:32 15° 259° (WSW) 18:36:42 145.860 - 145.880
KAITUO 1B 12 Dec 18:47:41 18:49:36 14° 259° (WSW) 18:51:31 145.475/437.950
CUTE 1.7 + AOD 2 12 Dec 18:48:01 18:52:12 69° 258° (WSW) 18:56:24 437.475
NUDT-PHONESAT 12 Dec 18:48:40 18:50:35 14° 258° (WSW) 18:52:32 437.300
SRMSAT 12 Dec 18:48:49 18:52:30 17° 194° (SSW) 18:56:12 437.500
CUTE-I 12 Dec 18:53:03 18:57:10 22° 257° (WSW) 19:01:16 437.470
AAUSAT CUBESAT 2 12 Dec 18:57:55 19:01:22 25° 79° (ENE) 19:04:48 437.432
HO-68 12 Dec 19:04:48 19:11:55 63° 256° (WSW) 19:19:00 435.675
CUBEBUG 2 12 Dec 19:09:00 19:13:28 69° 259° (WSW) 19:17:45 437.445
BEESAT 3 12 Dec 19:11:18 19:15:13 79° 293° (WNW) 19:19:09 437.485
UWE-3 12 Dec 19:14:17 19:18:36 64° 79° (ENE) 19:22:46 435.000/436.395/437.385
O/OREOS (USA 219) 12 Dec 19:17:33 19:21:35 34° 76° (ENE) 19:25:37 437.305
FALCONSAT 3 12 Dec 19:35:59 19:39:37 57° 322° (NW) 19:43:14 435.103
BEESAT 2 12 Dec 19:45:03 19:48:51 50° 112° (ESE) 19:52:42 435.950
ZACube-1 12 Dec 19:45:12 19:49:26 77° 78° (ENE) 19:53:35 437.345
JUGNU 12 Dec 20:00:18 20:02:41 12° 171° (S) 20:05:03 437.505
STRAND 1 12 Dec 20:01:30 20:05:18 21° 283° (WNW) 20:09:07 437.568
XW-2A 12 Dec 20:02:27 20:05:01 21° 259° (W) 20:07:34 145.665 - 145.685
Oscar 11 12 Dec 20:09:07 20:13:26 82° 77° (ENE) 20:17:43 .
AO-73 12 Dec 20:21:05 20:24:58 35° 258° (WSW) 20:28:45 145.935
FO-29 12 Dec 20:21:27 20:27:29 71° 283° (WNW) 20:32:56 435.910
DELFI C3 12 Dec 20:24:50 20:27:04 15° 79° (ENE) 20:29:16 145.870
AAUSAT CUBESAT 2 12 Dec 20:35:10 20:36:32 11° 258° (WSW) 20:37:54 437.432
SRMSAT 12 Dec 20:42:35 20:42:40 10° 184° (S) 20:42:45 437.500
nSIGHT-1 12 Dec 20:44:40 20:46:54 18° 54° (NE) 20:49:08 .
TIGRISAT 12 Dec 20:59:38 21:03:36 31° 103° (ESE) 21:07:37 435.000
UNISAT 6 12 Dec 21:02:01 21:06:09 38° 102° (ESE) 21:10:24 437.425
Max Valier Satellite 12 Dec 21:05:08 21:08:29 35° 79° (E) 21:11:49 145.860
ISS 12 Dec 21:16:39 21:19:40 35° 54° (NE) 21:22:42 437.550
AO-85 12 Dec 21:32:23 21:35:36 25° 291° (WNW) 21:38:48 145.980
EO-88 12 Dec 21:38:44 21:42:21 83° 79° (E) 21:45:57 145.990 - 145.960
JUGNU 12 Dec 21:47:39 21:52:23 25° 163° (SSE) 21:57:07 437.505
DELFI C3 12 Dec 21:58:43 22:01:31 18° 258° (WSW) 22:04:18 145.870
LO-87 12 Dec 22:18:10 22:20:49 20° 79° (E) 22:23:26 145.935 - 145.965
nSIGHT-1 12 Dec 22:21:26 22:22:54 13° 234° (SW) 22:24:21 .
PRISM 12 Dec 22:26:50 22:30:49 59° 282° (WNW) 22:34:48 437.425
SRMSAT 12 Dec 22:31:22 22:33:02 11° 173° (S) 22:34:42 437.500
TIGRISAT 12 Dec 22:38:37 22:40:01 11° 281° (WNW) 22:41:26 435.000
QB50P2 12 Dec 22:58:31 23:01:59 25° 102° (ESE) 23:05:29 145.880/145.840
DUCHIFAT 1 12 Dec 23:07:57 23:11:05 21° 102° (ESE) 23:14:15 145.980
AIST 2D 12 Dec 23:18:43 23:21:50 30° 281° (W) 23:24:57 435.315
ESTCUBE 1 12 Dec 23:29:38 23:33:57 48° 258° (WSW) 23:38:16 437.505/2401.250
NANOSAT C BR1 12 Dec 23:31:56 23:36:04 58° 102° (ESE) 23:40:14 145.865
JUGNU 12 Dec 23:35:46 23:41:35 65° 159° (SSE) 23:47:22 437.505
VELOX 1 12 Dec 23:38:41 23:41:37 17° 78° (ENE) 23:44:32 145.980
EO-79 12 Dec 23:45:32 23:49:43 73° 282° (WNW) 23:53:58 145.935-145.965
LO-87 12 Dec 23:53:46 23:53:55 10° 258° (WSW) 23:54:04 145.935 - 145.965
BUGSAT 1 12 Dec 23:58:25 00:01:01 16° 102° (ESE) 00:03:38 437.445
POLYITAN 1 13 Dec 00:08:14 00:12:02 33° 282° (WNW) 00:15:53 437.675
RS-15 13 Dec 00:15:16 00:24:07 27° 67° (ENE) 00:32:40 29.354- 29.394
Oscar 19 13 Dec 00:17:02 00:20:19 17° 103° (ESE) 00:23:36 437.125/150
SRMSAT 13 Dec 00:18:41 00:23:04 21° 164° (SSE) 00:27:26 437.500
QB50P2 13 Dec 00:35:41 00:37:29 13° 282° (WNW) 00:39:19 145.880/145.840
SPROUT 13 Dec 00:36:40 00:40:30 32° 258° (WSW) 00:44:18 437.525
Gurwin Techsat 1B 13 Dec 00:39:27 00:43:26 22° 103° (ESE) 00:47:23 435.225
DX 1 13 Dec 00:41:50 00:44:48 18° 78° (ENE) 00:47:44 434.975-435.025
DUCHIFAT 1 13 Dec 00:44:02 00:46:28 15° 282° (WNW) 00:48:55 145.980
SO-50 13 Dec 01:13:30 01:14:34 11° 67° (ENE) 01:15:39 436.795
VELOX 1 13 Dec 01:14:28 01:17:47 21° 258° (WSW) 01:21:05 145.980
JUGNU 13 Dec 01:25:02 01:30:36 45° 340° (NNW) 01:36:11 437.505
AO-91 13 Dec 01:27:11 01:30:27 48° 281° (W) 01:33:53 145.960
BUGSAT 1 13 Dec 01:33:18 01:36:05 18° 281° (WNW) 01:38:54 437.445
50 SAT 13 Dec 01:46:33 01:49:22 29° 258° (WSW) 01:52:11 437.505
Oscar 19 13 Dec 01:54:53 01:59:21 29° 282° (WNW) 02:03:49 437.125/150
UKube-1 13 Dec 02:05:41 02:09:53 50° 258° (WSW) 02:14:03 .
SRMSAT 13 Dec 02:06:46 02:12:32 51° 159° (SSE) 02:18:20 437.500
DX 1 13 Dec 02:17:34 02:20:41 19° 257° (WSW) 02:23:49 434.975-435.025
Gurwin Techsat 1B 13 Dec 02:18:52 02:23:04 24° 283° (WNW) 02:27:18 435.225
AO-7 13 Dec 02:19:38 02:26:57 34° 107° (ESE) 02:34:15 .
RS-15 13 Dec 02:25:29 02:36:04 51° 249° (WSW) 02:46:26 29.354- 29.394
YUBILEINY 13 Dec 02:44:14 02:52:59 74° 93° (E) 03:01:44 435.215
MOZHAYETS 4 13 Dec 02:49:18 02:53:51 80° 79° (E) 02:58:23
SO-50 13 Dec 02:50:21 02:54:47 39° 248° (WSW) 02:59:16 436.795
BEESAT 13 Dec 02:50:30 02:55:07 50° 77° (ENE) 02:59:41 436.000
M-CUBED/EXP-1 PRIME 13 Dec 02:52:01 02:56:02 53° 105° (ESE) 02:59:45 437.505
ITAMSAT 1 13 Dec 03:01:41 03:06:32 42° 103° (ESE) 03:11:24 435.822/435.867
JUGNU 13 Dec 03:15:55 03:19:57 19° 345° (NNW) 03:24:00 437.505
ITUPSAT 1 13 Dec 03:17:07 03:21:54 74° 258° (WSW) 03:26:38 437.325
SRMSAT 13 Dec 03:55:53 04:01:46 59° 339° (NNW) 04:07:40 437.500
CUBESAT XI-V 13 Dec 04:06:44 04:11:16 58° 258° (WSW) 04:15:48 437.345
AO-7 13 Dec 04:12:10 04:19:20 33° 287° (WNW) 04:26:32 .
ITAMSAT 1 13 Dec 04:44:16 04:45:42 11° 283° (WNW) 04:47:08 435.822/435.867
PCSat 13 Dec 04:45:39 04:49:24 19° 70° (ENE) 04:53:09 145.827
YUBILEINY 13 Dec 04:46:43 04:49:24 12° 273° (W) 04:52:06 435.215
XW-2D 13 Dec 04:52:23 04:54:02 12° 102° (ESE) 04:55:39 145.860 - 145.880
KKS-1 13 Dec 04:54:28 04:58:57 77° 79° (ENE) 05:03:25 437.445
DOVE 4 13 Dec 05:02:38 05:06:32 38° 282° (WNW) 05:10:23 437.250
KAITUO 1B 13 Dec 05:06:14 05:07:49 12° 101° (ESE) 05:09:23 145.475/437.950
NUDT-PHONESAT 13 Dec 05:06:41 05:07:53 11° 102° (ESE) 05:09:05 437.300
XW-2B 13 Dec 05:06:56 05:09:48 20° 101° (ESE) 05:12:39 145.730 - 145.750
JUGNU 13 Dec 05:08:43 05:09:50 11° 354° (N) 05:10:59 437.505
XW-2F 13 Dec 05:20:24 05:23:46 30° 101° (ESE) 05:27:08 145.980 - 146.000
NO-84 13 Dec 05:26:38 05:28:30 16° 302° (WNW) 05:30:23 435.350 FM
XW-2C 13 Dec 05:33:15 05:37:00 57° 100° (E) 05:40:47 145.795 - 145.815
FALCONSAT 3 13 Dec 05:42:08 05:43:29 12° 36° (NE) 05:44:50 435.103
